Regional Weather Roundup
Issued by NWS Charleston, WV

Home | Current Version | Previous Version | Text Only | Print | Product List | Glossary On
Versions: 1 2 3 4 5 6 7 8 9 10 11 12 13 14 15 16 17 18 19 20 21 22 23 24 25 26 27 28
000
ASUS41 KRLX 160510
RWRRLX
West Virginia Regional Weather Roundup
National Weather Service Charleston WV
100 AM EDT WED APR 16 2014

Note: "fair" indicates few or no clouds below 12,000 feet with no
significant weather and/or obstructions to visibility.

WVZ003-160600-
Northern Panhandle of West Virginia

CITY           SKY/WX    TMP DP  RH WIND       PRES   REMARKS
WHEELING       CLEAR     26  17  68 W7        30.20R
$$

WVZ009-160600-
Northwest West Virginia

CITY           SKY/WX    TMP DP  RH WIND       PRES   REMARKS
PARKERSBURG    CLEAR     29  19  66 CALM      30.26S
$$

WVZ006-160600-
Western West Virginia

CITY           SKY/WX    TMP DP  RH WIND       PRES   REMARKS
HUNTINGTON     CLEAR     30  19  63 N6        30.24R
$$

WVZ015-160600-
West Central West Virginia

CITY           SKY/WX    TMP DP  RH WIND       PRES   REMARKS
CHARLESTON     PTCLDY    32  18  56 NW6       30.22R
$$

WVZ031-160600-
North Central West Virginia

CITY           SKY/WX    TMP DP  RH WIND       PRES   REMARKS
CLARKSBURG     MOCLDY    29  14  53 NW9       30.19S
MORGANTOWN     PTCLDY    29  17  61 NW5       30.19R
$$

WVZ035-042-045-160600-
South Central West Virginia

CITY           SKY/WX    TMP DP  RH WIND       PRES   REMARKS
BECKLEY        CLOUDY    26  14  60 N15       30.11R
BLUEFIELD      CLOUDY    28  15  58 NW9G20    30.08S
LEWISBURG      CLOUDY    27  15  59 N16       30.09R
$$

WVZ047-160600-
Northern Mountains of West Virginia

CITY           SKY/WX    TMP DP  RH WIND       PRES   REMARKS
ELKINS         FLURRIES  25  18  74 NW14G20   30.14R
$$

WVZ052-160600-
Eastern Panhandle of West Virginia

CITY           SKY/WX    TMP DP  RH WIND       PRES   REMARKS
MARTINSBURG    CLOUDY    34  15  46 NW16G23   30.14R
PETERSBURG     CLOUDY    36  19  50 NW12G28   30.17R
$$



USA.gov is the U.S. government's official web portal to all federal, state and local government web resources and services.